Hourly Data Report for October 05, 2017

All times are specified in Local Standard Time (LST). Add 1 hour to adjust for Daylight Saving Time where and when it is observed.

FISHER BRANCH (AUT)
MANITOBA

51°05'00.100" N
97°33'16.200" W
253.00 m
50309J6
71442
WSZ

Download Data

Hourly Data (October 2017)
Hourly Data Report for October 5, 2017
Temp Definition
°C
Dew Point Temp Definition
°C
Rel Hum Definition
%
Wind Dir Definition
10's deg

Wind Spd Definition
km/h
Visibility Definition
km
Stn Press Definition
kPa
Hmdx Definition


Wind Chill Definition


Weather Definition


TIME
00:00 6.9 2.8 75 27 6   98.84     LegendNANA
01:00 6.9 2.7 75 28 10   98.87     LegendNANA
02:00 4.6 1.8 82 28 8   98.88     LegendNANA
03:00 4.2 1.5 83 27 7   98.90     LegendNANA
04:00 4.0 1.7 85 27 8   98.93     LegendNANA
05:00 2.4 0.8 89 28 8   98.94     LegendNANA
06:00 0.9 -0.3 92 32 6   98.96     LegendNANA
07:00 0.9 -0.2 92 31 6   99.00     LegendNANA
08:00 3.7 1.2 84 29 8   99.01     LegendNANA
09:00 7.0 0.4 63 32 11   99.03     LegendNANA
10:00 8.8 -0.5 52 32 12   99.05     LegendNANA
11:00 9.3 0.1 53 30 15   99.01     LegendNANA
12:00 10.3 0.4 50 29 15   98.98     LegendNANA
13:00 11.3 0.4 47 29 14   98.92     LegendNANA
14:00 11.6 -0.6 43 29 14   98.88     LegendNANA
15:00 12.4 0.1 43 26 12   98.84     LegendNANA
16:00 11.9 -0.6 42 27 13   98.80     LegendNANA
17:00 11.4 -0.9 42 28 13   98.77     LegendNANA
18:00 8.5 0.5 57 26 4   98.73     LegendNANA
19:00 5.3 0.4 71 21 6   98.71     LegendNANA
20:00 5.3 0.0 69 20 7   98.66     LegendNANA
21:00 4.1 -0.2 74 20 7   98.63     LegendNANA
22:00 4.0 0.3 77 20 11   98.59     LegendNANA
23:00 4.5 0.8 77 20 10   98.56     LegendNANA

Notes on Data Quality.

Legend

  • E = Estimated
  • M = Missing
  • NA = Not Available
  • ‡ = Partner data that is not subject to review by the National Climate Archives
Date modified: